Time,TemperatureF,DewpointF,PressureIn,WindDirection,WindDirectionDegrees,WindSpeedMPH,WindSpeedGustMPH,Humidity,HourlyPrecipIn,Conditions,Clouds,dailyrainin,SoftwareType,DateUTC
2013-10-28 00:01:00,42.7,32.0,30.03,WSW,257,0.0,3.0,66,0.00,,,0.00,weatherlink.com 1.10,2013-10-28 06:01:00,
2013-10-28 00:16:00,41.6,32.0,30.03,WSW,256,0.0,2.0,68,0.00,,,0.00,weatherlink.com 1.10,2013-10-28 06:16:00,
2013-10-28 00:31:00,40.8,32.0,30.03,WSW,256,1.0,2.0,70,0.00,,,0.00,weatherlink.com 1.10,2013-10-28 06:31:00,
2013-10-28 00:46:00,40.9,32.0,30.02,WSW,256,0.0,1.0,71,0.00,,,0.00,weatherlink.com 1.10,2013-10-28 06:46:00,
2013-10-28 01:01:00,40.6,32.0,30.02,WSW,256,0.0,1.0,70,0.00,,,0.00,weatherlink.com 1.10,2013-10-28 07:01:00,
2013-10-28 01:16:00,40.0,31.0,30.02,WSW,256,0.0,0.0,71,0.00,,,0.00,weatherlink.com 1.10,2013-10-28 07:16:00,
2013-10-28 01:31:00,40.1,32.0,30.02,WSW,256,0.0,2.0,72,0.00,,,0.00,weatherlink.com 1.10,2013-10-28 07:31:00,
2013-10-28 01:46:00,40.5,32.0,30.02,WSW,256,0.0,3.0,71,0.00,,,0.00,weatherlink.com 1.10,2013-10-28 07:46:00,
2013-10-28 02:01:00,39.8,32.0,30.02,WSW,256,0.0,3.0,73,0.00,,,0.00,weatherlink.com 1.10,2013-10-28 08:01:00,
2013-10-28 02:16:00,40.0,32.0,30.02,WSW,256,0.0,3.0,72,0.00,,,0.00,weatherlink.com 1.10,2013-10-28 08:16:00,
2013-10-28 02:33:00,39.3,32.0,30.02,WSW,256,0.0,3.0,74,0.00,,,0.00,weatherlink.com 1.10,2013-10-28 08:33:00,
2013-10-28 02:47:00,39.3,32.0,30.02,WSW,256,0.0,4.0,74,0.00,,,0.00,weatherlink.com 1.10,2013-10-28 08:47:00,
2013-10-28 03:02:00,39.5,32.0,30.02,WSW,254,0.0,2.0,73,0.00,,,0.00,weatherlink.com 1.10,2013-10-28 09:02:00,
2013-10-28 03:17:00,39.1,32.0,30.02,WSW,255,1.0,3.0,75,0.00,,,0.00,weatherlink.com 1.10,2013-10-28 09:17:00,
2013-10-28 03:32:00,39.3,32.0,30.01,WSW,254,0.0,4.0,74,0.00,,,0.00,weatherlink.com 1.10,2013-10-28 09:32:00,
2013-10-28 03:47:00,39.3,32.0,30.00,WSW,254,4.0,4.0,75,0.00,,,0.00,weatherlink.com 1.10,2013-10-28 09:47:00,
2013-10-28 04:02:00,39.7,32.0,29.99,WSW,247,0.0,4.0,74,0.00,,,0.00,weatherlink.com 1.10,2013-10-28 10:02:00,
2013-10-28 04:17:00,38.9,31.0,29.99,WSW,246,0.0,0.0,74,0.00,,,0.00,weatherlink.com 1.10,2013-10-28 10:17:00,
2013-10-28 04:32:00,37.5,31.0,30.00,WSW,247,1.0,3.0,77,0.00,,,0.00,weatherlink.com 1.10,2013-10-28 10:32:00,
2013-10-28 04:47:00,37.8,32.0,30.00,WSW,246,0.0,4.0,79,0.00,,,0.00,weatherlink.com 1.10,2013-10-28 10:47:00,
2013-10-28 05:02:00,38.3,32.0,30.00,WSW,247,0.0,3.0,77,0.00,,,0.00,weatherlink.com 1.10,2013-10-28 11:02:00,
2013-10-28 05:17:00,38.7,31.0,30.00,WSW,247,0.0,0.0,75,0.00,,,0.00,weatherlink.com 1.10,2013-10-28 11:17:00,
2013-10-28 05:32:00,37.9,31.0,30.00,WSW,247,0.0,3.0,77,0.00,,,0.00,weatherlink.com 1.10,2013-10-28 11:32:00,
2013-10-28 05:47:00,37.5,32.0,30.00,WSW,247,2.0,2.0,79,0.00,,,0.00,weatherlink.com 1.10,2013-10-28 11:47:00,
2013-10-28 06:02:00,38.0,31.0,30.00,WSW,247,0.0,1.0,77,0.00,,,0.00,weatherlink.com 1.10,2013-10-28 12:02:00,
2013-10-28 06:17:00,37.1,31.0,30.01,WSW,247,0.0,2.0,79,0.00,,,0.00,weatherlink.com 1.10,2013-10-28 12:17:00,
2013-10-28 06:32:00,37.5,32.0,30.02,WSW,246,0.0,2.0,79,0.00,,,0.00,weatherlink.com 1.10,2013-10-28 12:32:00,
2013-10-28 06:46:00,37.9,32.0,30.01,WSW,247,4.0,5.0,79,0.00,,,0.00,weatherlink.com 1.10,2013-10-28 12:46:00,
2013-10-28 07:01:00,39.3,32.0,30.01,WSW,246,2.0,4.0,76,0.00,,,0.00,weatherlink.com 1.10,2013-10-28 13:01:00,
2013-10-28 07:17:00,39.8,32.0,30.01,WSW,245,2.0,4.0,75,0.00,,,0.00,weatherlink.com 1.10,2013-10-28 13:17:00,
2013-10-28 07:32:00,39.0,32.0,30.02,WSW,245,0.0,0.0,76,0.00,,,0.00,weatherlink.com 1.10,2013-10-28 13:32:00,
2013-10-28 07:47:00,37.9,32.0,30.02,WSW,246,0.0,0.0,78,0.00,,,0.00,weatherlink.com 1.10,2013-10-28 13:47:00,
2013-10-28 08:02:00,37.9,32.0,30.02,WSW,246,1.0,1.0,80,0.00,,,0.00,weatherlink.com 1.10,2013-10-28 14:02:00,
2013-10-28 08:17:00,38.8,33.0,30.02,WSW,246,0.0,0.0,81,0.00,,,0.00,weatherlink.com 1.10,2013-10-28 14:17:00,
2013-10-28 08:32:00,40.0,34.0,30.03,WSW,246,0.0,2.0,80,0.00,,,0.00,weatherlink.com 1.10,2013-10-28 14:32:00,
2013-10-28 08:47:00,42.0,35.0,30.02,WSW,246,0.0,2.0,75,0.00,,,0.00,weatherlink.com 1.10,2013-10-28 14:47:00,
2013-10-28 09:02:00,43.2,35.0,30.03,WSW,246,0.0,0.0,72,0.00,,,0.00,weatherlink.com 1.10,2013-10-28 15:02:00,
2013-10-28 09:17:00,42.9,34.0,30.04,WSW,246,0.0,2.0,71,0.00,,,0.00,weatherlink.com 1.10,2013-10-28 15:17:00,
2013-10-28 09:32:00,42.5,35.0,30.04,WSW,246,0.0,1.0,75,0.00,,,0.00,weatherlink.com 1.10,2013-10-28 15:32:00,
2013-10-28 09:47:00,42.8,36.0,30.04,WSW,246,0.0,0.0,76,0.00,,,0.00,weatherlink.com 1.10,2013-10-28 15:47:00,
2013-10-28 10:02:00,44.5,36.0,30.03,WSW,246,0.0,0.0,73,0.00,,,0.00,weatherlink.com 1.10,2013-10-28 16:02:00,
2013-10-28 10:17:00,45.8,35.0,30.04,WSW,246,0.0,4.0,67,0.00,,,0.00,weatherlink.com 1.10,2013-10-28 16:17:00,
2013-10-28 10:32:00,47.3,37.0,30.03,WSW,245,0.0,2.0,67,0.00,,,0.00,weatherlink.com 1.10,2013-10-28 16:32:00,
2013-10-28 10:47:00,49.1,36.0,30.02,WSW,245,0.0,3.0,61,0.00,,,0.00,weatherlink.com 1.10,2013-10-28 16:47:00,
2013-10-28 11:02:00,50.3,35.0,30.03,WSW,245,0.0,3.0,56,0.00,,,0.00,weatherlink.com 1.10,2013-10-28 17:02:00,
2013-10-28 11:17:00,51.9,35.0,30.02,WSW,246,2.0,4.0,53,0.00,,,0.00,weatherlink.com 1.10,2013-10-28 17:17:00,
2013-10-28 11:32:00,52.5,36.0,30.02,WSW,246,0.0,4.0,53,0.00,,,0.00,weatherlink.com 1.10,2013-10-28 17:32:00,
2013-10-28 11:47:00,53.3,36.0,30.01,WSW,246,2.0,5.0,53,0.00,,,0.00,weatherlink.com 1.10,2013-10-28 17:47:00,
2013-10-28 12:02:00,54.0,37.0,30.01,WSW,246,0.0,7.0,53,0.00,,,0.00,weatherlink.com 1.10,2013-10-28 18:02:00,
2013-10-28 12:17:00,55.0,38.0,30.00,WSW,246,2.0,4.0,54,0.00,,,0.00,weatherlink.com 1.10,2013-10-28 18:17:00,
2013-10-28 12:32:00,56.4,38.0,29.99,WNW,284,3.0,8.0,50,0.00,,,0.00,weatherlink.com 1.10,2013-10-28 18:32:00,
2013-10-28 12:47:00,58.4,37.0,29.98,West,259,6.0,14.0,45,0.00,,,0.00,weatherlink.com 1.10,2013-10-28 18:47:00,
2013-10-28 13:02:00,59.0,32.0,29.98,SW,232,8.0,16.0,36,0.00,,,0.00,weatherlink.com 1.10,2013-10-28 19:02:00,
2013-10-28 13:17:00,59.0,30.0,29.97,WSW,242,9.0,16.0,34,0.00,,,0.00,weatherlink.com 1.10,2013-10-28 19:17:00,
2013-10-28 13:32:00,58.6,29.0,29.97,SW,228,9.0,17.0,32,0.00,,,0.00,weatherlink.com 1.10,2013-10-28 19:32:00,
2013-10-28 13:47:00,58.3,28.0,29.96,WSW,258,9.0,16.0,32,0.00,,,0.00,weatherlink.com 1.10,2013-10-28 19:47:00,
2013-10-28 14:02:00,59.0,30.0,29.95,WSW,258,3.0,17.0,34,0.00,,,0.00,weatherlink.com 1.10,2013-10-28 20:02:00,
2013-10-28 14:17:00,59.0,27.0,29.95,West,271,7.0,14.0,30,0.00,,,0.00,weatherlink.com 1.10,2013-10-28 20:17:00,
2013-10-28 14:32:00,59.4,29.0,29.95,West,259,7.0,15.0,31,0.00,,,0.00,weatherlink.com 1.10,2013-10-28 20:32:00,
2013-10-28 14:47:00,59.3,30.0,29.95,West,278,6.0,12.0,33,0.00,,,0.00,weatherlink.com 1.10,2013-10-28 20:47:00,
2013-10-28 15:02:00,59.0,29.0,29.95,West,268,3.0,14.0,32,0.00,,,0.00,weatherlink.com 1.10,2013-10-28 21:02:00,
2013-10-28 15:17:00,59.1,29.0,29.95,West,264,3.0,15.0,32,0.00,,,0.00,weatherlink.com 1.10,2013-10-28 21:17:00,
2013-10-28 15:32:00,59.0,27.0,29.95,WSW,257,3.0,11.0,29,0.00,,,0.00,weatherlink.com 1.10,2013-10-28 21:32:00,
2013-10-28 15:47:00,59.4,28.0,29.95,WSW,239,9.0,14.0,30,0.00,,,0.00,weatherlink.com 1.10,2013-10-28 21:47:00,
2013-10-28 16:06:00,59.3,28.0,29.95,WSW,250,10.0,14.0,30,0.00,,,0.00,weatherlink.com 1.10,2013-10-28 22:06:00,
2013-10-28 16:18:00,59.2,27.0,29.96,SW,236,6.0,14.0,29,0.00,,,0.00,weatherlink.com 1.10,2013-10-28 22:18:00,
2013-10-28 17:03:00,58.1,27.0,29.97,SW,218,8.0,12.0,31,0.00,,,0.00,weatherlink.com 1.10,2013-10-28 23:03:00,
2013-10-28 17:18:00,57.4,27.0,29.98,SW,218,0.0,9.0,31,0.00,,,0.00,weatherlink.com 1.10,2013-10-28 23:18:00,
2013-10-28 17:48:00,55.4,27.0,29.98,SW,226,4.0,11.0,33,0.00,,,0.00,weatherlink.com 1.10,2013-10-28 23:48:00,
2013-10-28 18:03:00,53.9,26.0,29.99,SSW,194,2.0,11.0,34,0.00,,,0.00,weatherlink.com 1.10,2013-10-29 00:03:00,
2013-10-28 18:33:00,50.7,26.0,29.99,South,190,3.0,8.0,38,0.00,,,0.00,weatherlink.com 1.10,2013-10-29 00:33:00,
2013-10-28 18:49:00,50.6,26.0,30.00,South,180,3.0,10.0,38,0.00,,,0.00,weatherlink.com 1.10,2013-10-29 00:49:00,
2013-10-28 19:04:00,50.4,25.0,30.00,South,171,6.0,9.0,38,0.00,,,0.00,weatherlink.com 1.10,2013-10-29 01:04:00,
2013-10-28 19:19:00,50.3,25.0,30.00,SSE,161,7.0,10.0,38,0.00,,,0.00,weatherlink.com 1.10,2013-10-29 01:19:00,
2013-10-28 19:49:00,49.8,25.0,30.01,SSE,156,5.0,9.0,38,0.00,,,0.00,weatherlink.com 1.10,2013-10-29 01:49:00,
2013-10-28 20:04:00,49.5,25.0,30.01,SSE,155,3.0,9.0,39,0.00,,,0.00,weatherlink.com 1.10,2013-10-29 02:04:00,
2013-10-28 20:19:00,48.1,25.0,30.00,SSE,155,4.0,7.0,41,0.00,,,0.00,weatherlink.com 1.10,2013-10-29 02:19:00,
2013-10-28 20:34:00,46.0,26.0,30.01,SSE,155,2.0,7.0,45,0.00,,,0.00,weatherlink.com 1.10,2013-10-29 02:34:00,
2013-10-28 20:49:00,45.7,25.0,30.00,SSE,155,0.0,5.0,44,0.00,,,0.00,weatherlink.com 1.10,2013-10-29 02:49:00,
2013-10-28 21:04:00,47.2,25.0,30.00,SSE,155,0.0,6.0,42,0.00,,,0.00,weatherlink.com 1.10,2013-10-29 03:04:00,
2013-10-28 21:19:00,46.4,24.0,30.00,SSE,155,0.0,5.0,42,0.00,,,0.00,weatherlink.com 1.10,2013-10-29 03:19:00,
2013-10-28 21:34:00,45.3,25.0,30.00,SSE,155,0.0,2.0,45,0.00,,,0.00,weatherlink.com 1.10,2013-10-29 03:34:00,
2013-10-28 21:49:00,44.5,24.0,30.00,SSE,155,0.0,0.0,45,0.00,,,0.00,weatherlink.com 1.10,2013-10-29 03:49:00,
2013-10-28 22:04:00,43.5,25.0,30.01,SSE,155,0.0,0.0,48,0.00,,,0.00,weatherlink.com 1.10,2013-10-29 04:04:00,
2013-10-28 22:34:00,46.7,25.0,30.00,SSE,155,4.0,7.0,43,0.00,,,0.00,weatherlink.com 1.10,2013-10-29 04:34:00,
2013-10-28 23:04:00,47.7,25.0,30.01,SSE,156,3.0,8.0,41,0.00,,,0.00,weatherlink.com 1.10,2013-10-29 05:04:00,
2013-10-28 23:19:00,49.0,24.0,30.02,SSE,167,1.0,11.0,37,0.00,,,0.00,weatherlink.com 1.10,2013-10-29 05:19:00,
2013-10-28 23:34:00,50.1,24.0,30.01,South,186,3.0,9.0,36,0.00,,,0.00,weatherlink.com 1.10,2013-10-29 05:34:00,
2013-10-28 23:49:00,49.5,23.0,30.02,South,186,0.0,4.0,36,0.00,,,0.00,weatherlink.com 1.10,2013-10-29 05:49:00,